Weather History for KMWM - February, 2012

Change the Weather History Date:

Thursday, February 2, 2012

  Actual Average (KOTG) Record (KOTG)
Temperature  
Mean Temperature 34 °F -  
Max Temperature 46 °F 25 °F 51 °F (1987)
Min Temperature 21 °F 10 °F -21 °F (1978)
Degree Days  
Heating Degree Days 32    
Moisture  
Dew Point 29 °F    
Average Humidity 85    
Maximum Humidity 100    
Minimum Humidity 53    
Precipitation  
Precipitation 0.00 in - - ()
Sea Level Pressure  
Sea Level Pressure 30.21 in    
Wind  
Wind Speed 2 mph (SE)    
Max Wind Speed 8 mph    
Max Gust Speed -    
Visibility 10 miles    
Events      
Averages and records for this station are not official NWS values.
T = Trace of Precipitation, MM = Missing Value Source: NWS Daily Summary

Daily Weather History Graph

Daily Weather History Graph

Search for Another Location

Airport or City:

Trip Planner

Search our weather history database for the weather conditions in past years. The results will help you decide how hot, cold, wet, or windy it might be!

Date:

Astronomy

Feb. 02, 2012 Rise Set
Actual Time 7:37 AM CST 5:31 PM CST
Civil Twilight 7:06 AM CST 6:02 PM CST
Nautical Twilight 6:31 AM CST 6:36 PM CST
Astronomical Twilight 5:58 AM CST 7:10 PM CST
Moon 12:39 PM CST (2/2) 3:24 AM CST (2/2)
Length of Visible Light 10h 55m
Length of Day
9h 54m
Waxing Gibbous, 74% of the Moon is Illuminated
Feb 2
Waxing Gibbous
Feb 7
Full
Feb 14
Last Quarter
Feb 21
New
Feb 29
First Quarter

Hourly Weather History & Observations

Time (CST) Temp. Windchill Dew Point Humidity Pressure Visibility Wind Dir Wind Speed Gust Speed Precip Events Conditions
12:12 AM 30.2 °F 25.4 °F 28.4 °F 93% 30.11 in 10.0 mi SW 4.6 mph - N/A   Clear
12:32 AM 28.4 °F 24.6 °F 28.4 °F 100% 30.12 in 10.0 mi SSW 3.5 mph - N/A   Clear
12:53 AM 28.4 °F 24.6 °F 28.4 °F 100% 30.12 in 10.0 mi SW 3.5 mph - N/A   Clear
1:12 AM 28.4 °F 23.3 °F 28.4 °F 100% 30.12 in 10.0 mi WSW 4.6 mph - N/A   Clear
1:32 AM 28.4 °F 24.6 °F 28.4 °F 100% 30.12 in 10.0 mi West 3.5 mph - N/A   Clear
1:53 AM 28.4 °F 24.6 °F 26.6 °F 93% 30.12 in 10.0 mi WSW 3.5 mph - N/A   Clear
2:12 AM 28.4 °F - 26.6 °F 93% 30.13 in 10.0 mi Calm Calm - N/A   Clear
2:33 AM 28.4 °F 24.6 °F 26.6 °F 93% 30.13 in 10.0 mi WSW 3.5 mph - N/A   Clear
2:52 AM 26.6 °F - 26.6 °F 100% 30.14 in 10.0 mi Calm Calm - N/A   Clear
3:13 AM 26.6 °F - 26.6 °F 100% 30.14 in 10.0 mi Calm Calm - N/A   Clear
3:32 AM 26.6 °F 22.6 °F 26.6 °F 100% 30.14 in 10.0 mi SSW 3.5 mph - N/A   Clear
3:52 AM 28.4 °F - 26.6 °F 93% 30.14 in 10.0 mi Calm Calm - N/A   Clear
4:12 AM 26.6 °F 22.6 °F 24.8 °F 93% 30.14 in 10.0 mi WSW 3.5 mph - N/A   Clear
4:32 AM 24.8 °F - 24.8 °F 100% 30.14 in 10.0 mi Calm Calm - N/A   Clear
4:53 AM 24.8 °F - 24.8 °F 100% 30.15 in 10.0 mi Calm Calm - N/A   Clear
5:13 AM 24.8 °F - 24.8 °F 100% 30.16 in 10.0 mi Calm Calm - N/A   Clear
5:32 AM 26.6 °F - 24.8 °F 93% 30.17 in 10.0 mi Calm Calm - N/A   Clear
5:53 AM 24.8 °F - 23.0 °F 93% 30.17 in 10.0 mi Calm Calm - N/A   Clear
6:12 AM 23.0 °F 18.4 °F 23.0 °F 100% 30.17 in 10.0 mi West 3.5 mph - N/A   Clear
6:32 AM 23.0 °F - 23.0 °F 100% 30.18 in 10.0 mi Calm Calm - N/A   Clear
6:53 AM 23.0 °F - 23.0 °F 100% 30.18 in 10.0 mi Calm Calm - N/A   Clear
7:12 AM 24.8 °F - 24.8 °F 100% 30.19 in 10.0 mi Calm Calm - N/A   Clear
7:32 AM 21.2 °F - 21.2 °F 100% 30.19 in 10.0 mi Calm Calm - N/A   Clear
7:53 AM 21.2 °F - 21.2 °F 100% 30.20 in 10.0 mi Calm Calm - N/A   Clear
8:12 AM 23.0 °F - 23.0 °F 100% 30.21 in 10.0 mi Calm Calm - N/A   Clear
8:32 AM 23.0 °F - 21.2 °F 93% 30.21 in 10.0 mi Calm Calm - N/A   Clear
8:53 AM 26.6 °F - 24.8 °F 93% 30.22 in 10.0 mi Calm Calm - N/A   Clear
9:12 AM 28.4 °F - 26.6 °F 93% 30.22 in 10.0 mi Calm Calm - N/A   Clear
9:32 AM 30.2 °F - 28.4 °F 93% 30.23 in 10.0 mi Calm Calm - N/A   Clear
9:53 AM 32.0 °F - 30.2 °F 93% 30.23 in 10.0 mi Calm Calm - N/A   Clear
10:12 AM 33.8 °F - 30.2 °F 87% 30.24 in 10.0 mi Calm Calm - N/A   Clear
10:32 AM 35.6 °F - 32.0 °F 87% 30.25 in 10.0 mi Calm Calm - N/A   Clear
10:52 AM 37.4 °F - 30.2 °F 75% 30.25 in 10.0 mi Calm Calm - N/A   Clear
11:12 AM 39.2 °F - 32.0 °F 75% 30.25 in 10.0 mi Calm Calm - N/A   Clear
11:33 AM 39.2 °F - 32.0 °F 75% 30.25 in 10.0 mi Calm Calm - N/A   Clear
11:52 AM 42.8 °F - 33.8 °F 70% 30.25 in 10.0 mi Calm Calm - N/A   Clear
12:12 PM 42.8 °F - 33.8 °F 70% 30.24 in 10.0 mi Calm Calm - N/A   Clear
12:33 PM 44.6 °F - 32.0 °F 61% 30.24 in 10.0 mi Calm Calm - N/A   Clear
12:52 PM 44.6 °F - 33.8 °F 66% 30.24 in 10.0 mi Calm Calm - N/A   Clear
1:12 PM 46.4 °F 45.2 °F 32.0 °F 57% 30.24 in 10.0 mi SSW 3.5 mph - N/A   Clear
1:33 PM 46.4 °F 45.2 °F 30.2 °F 53% 30.23 in 10.0 mi SE 3.5 mph - N/A   Clear
1:52 PM 44.6 °F - 30.2 °F 57% 30.22 in 10.0 mi Calm Calm - N/A   Clear
2:12 PM 44.6 °F - 30.2 °F 57% 30.22 in 10.0 mi Calm Calm - N/A   Mostly Cloudy
2:33 PM 44.6 °F 43.1 °F 32.0 °F 61% 30.22 in 10.0 mi ESE 3.5 mph - N/A   Overcast
2:52 PM 44.6 °F 43.1 °F 30.2 °F 57% 30.22 in 10.0 mi SE 3.5 mph - N/A   Overcast
3:12 PM 44.6 °F 43.1 °F 30.2 °F 57% 30.23 in 10.0 mi SE 3.5 mph - N/A   Overcast
3:33 PM 44.6 °F 42.2 °F 33.8 °F 66% 30.23 in 10.0 mi SE 4.6 mph - N/A   Overcast
3:52 PM 44.6 °F 42.2 °F 33.8 °F 66% 30.23 in 10.0 mi SE 4.6 mph - N/A   Overcast
4:13 PM 42.8 °F 39.3 °F 33.8 °F 70% 30.23 in 10.0 mi ESE 5.8 mph - N/A   Mostly Cloudy
4:32 PM 42.8 °F 41.1 °F 33.8 °F 70% 30.23 in 10.0 mi East 3.5 mph - N/A   Scattered Clouds
4:52 PM 41.0 °F 39.0 °F 33.8 °F 76% 30.23 in 10.0 mi East 3.5 mph - N/A   Scattered Clouds
5:13 PM 39.2 °F 37.0 °F 33.8 °F 81% 30.24 in 10.0 mi East 3.5 mph - N/A   Scattered Clouds
5:32 PM 39.2 °F - 33.8 °F 81% 30.25 in 10.0 mi Calm Calm - N/A   Clear
5:52 PM 35.6 °F 31.7 °F 32.0 °F 87% 30.25 in 10.0 mi East 4.6 mph - N/A   Clear
6:13 PM 35.6 °F 31.7 °F 32.0 °F 87% 30.26 in 10.0 mi East 4.6 mph - N/A   Clear
6:32 PM 33.8 °F 29.6 °F 30.2 °F 87% 30.26 in 10.0 mi East 4.6 mph - N/A   Clear
6:52 PM 33.8 °F 29.6 °F 32.0 °F 93% 30.27 in 10.0 mi East 4.6 mph - N/A   Clear
7:13 PM 33.8 °F 29.6 °F 30.2 °F 87% 30.27 in 10.0 mi East 4.6 mph - N/A   Clear
7:32 PM 33.8 °F 30.8 °F 32.0 °F 93% 30.27 in 10.0 mi ENE 3.5 mph - N/A   Clear
7:52 PM 33.8 °F 30.8 °F 32.0 °F 93% 30.28 in 10.0 mi ENE 3.5 mph - N/A   Clear
8:13 PM 33.8 °F 29.6 °F 32.0 °F 93% 30.28 in 10.0 mi ENE 4.6 mph - N/A   Clear
8:32 PM 33.8 °F 27.0 °F 32.0 °F 93% 30.28 in 10.0 mi NE 8.1 mph - N/A   Clear
8:53 PM 33.8 °F 27.7 °F 32.0 °F 93% 30.28 in 10.0 mi ENE 6.9 mph - N/A   Clear
9:13 PM 32.0 °F 26.4 °F 32.0 °F 100% 30.28 in 10.0 mi East 5.8 mph - N/A   Clear
9:32 PM 32.0 °F 28.7 °F 30.2 °F 93% 30.30 in 10.0 mi East 3.5 mph - N/A   Clear
9:53 PM 32.0 °F 27.5 °F 30.2 °F 93% 30.30 in 10.0 mi ENE 4.6 mph - N/A   Clear
10:13 PM 32.0 °F 28.7 °F 30.2 °F 93% 30.30 in 10.0 mi NE 3.5 mph - N/A   Clear
10:32 PM 30.2 °F 25.4 °F 30.2 °F 100% 30.31 in 10.0 mi ENE 4.6 mph - N/A   Clear
10:53 PM 28.4 °F 22.2 °F 28.4 °F 100% 30.33 in 5.0 mi ENE 5.8 mph - N/A   Clear
11:13 PM 30.2 °F 22.6 °F 30.2 °F 100% 30.33 in 0.5 mi ENE 8.1 mph - N/A Fog Light Freezing Fog
11:32 PM 30.2 °F 23.4 °F 30.2 °F 100% 30.33 in 0.2 mi ENE 6.9 mph - N/A Snow Light Snow
11:53 PM 30.2 °F 22.6 °F 30.2 °F 100% 30.34 in 0.2 mi ENE 8.1 mph - N/A Snow Light Snow